Content
SEND FEEDBACK

Daily
Averages
Monthly
Summary
United States of America

WAHWEAP, ARIZONA


Home > North America > United States > Arizona
Elevation: 3703 feet     Latitude: 36 59N     Longitude: 111 29W

WEATHER
 
SELECT A DAY
Number of Records: 194,823;   Date Range: 1/1/95 - 8/30/14
 
SHARE

PRINT THIS DATA

[ ← Previous Day ]
WEATHER ALMANAC - FEBRUARY 16, 2013
[ Next Day → ]
[ °C ]   °F
Weather ElementAverageHighLow
Temperature41.7 °F54 °F (3:53 pm)30.9 °F (4:53 am)
Dewpoint19 °F21.2 °F (7:53 pm)17.1 °F (6:53 am)
Humidity41.9 %61 % (4:53 am)25 % (3:53 pm)
Barometer30.29 in30.43 in (7:53 am)30.07 in (11:53 pm)
Wind Speed2.1 mph5.8 mph (2:53 pm)
Weather ElementAverage
Visibility9.7 mi
Wind DirectionENE (55.7 °)

Weather ElementTotal
Precipitation---
Heating Degree Days22.6 (Base 65)
Averaged from 23 records on February 16, 2013
WEATHER CONDITIONS BREAKOUT
WIND DIRECTION BREAKOUT
WEATHER BY HOUR - FEBRUARY 16, 2013
[ °C ]   °F
Local TimeTemperatureDewpointHumidityBarometerVisibilityWind DirectionWind SpeedGust SpeedPrecipitationEventsConditions
1:53 AM35.1 °F18.0 °F50 %30.40 in10.0 miCalmClear
2:53 AM33.1 °F18.0 °F54 %30.40 in10.0 miSW (230°)4.6 mphClear
3:53 AM33.1 °F19.0 °F56 %30.39 in10.0 miSSE (150°)3.5 mphClear
4:53 AM30.9 °F19.0 °F61 %30.39 in10.0 miCalmClear
5:53 AM32.0 °F18.0 °F56 %30.40 in10.0 miSW (230°)4.6 mphClear
6:53 AM30.9 °F17.1 °F57 %30.41 in9.0 miCalmClear
7:53 AM30.9 °F18.0 °F59 %30.43 in9.0 miCalmClear
8:53 AM37.0 °F18.0 °F46 %30.43 in10.0 miCalmClear
9:53 AM39.9 °F19.0 °F43 %30.42 in10.0 miCalmClear
10:53 AM42.1 °F18.0 °F38 %30.40 in10.0 miVariable3.5 mphClear
11:53 AM45.0 °F19.0 °F36 %30.37 in10.0 miCalmClear
12:53 PM48.2 °F19.4 °F32 %30.33 in10.0 miCalmClear
1:53 PM51.1 °F19.9 °F29 %30.26 in10.0 miNE (40°)3.5 mphClear
2:53 PM53.1 °F19.9 °F27 %30.22 in10.0 miVariable5.8 mphClear
3:53 PM54.0 °F19.0 °F25 %30.19 in10.0 miENE (70°)4.6 mphClear
4:53 PM53.1 °F19.9 °F27 %30.18 in10.0 miNE (50°)4.6 mphClear
5:53 PM50.0 °F19.9 °F31 %30.16 in10.0 miESE (110°)3.5 mphClear
6:53 PM46.9 °F19.9 °F34 %30.17 in10.0 miSE (130°)3.5 mphClear
7:53 PM46.4 °F21.2 °F37 %30.15 in10.0 miSE (140°)3.5 mphClear
8:53 PM45.0 °F19.0 °F36 %30.14 in10.0 miCalmClear
9:53 PM42.1 °F19.0 °F40 %30.14 in10.0 miCalmClear
10:53 PM39.9 °F19.9 °F45 %30.12 in6.0 miCalmHaze
11:53 PM39.9 °F19.9 °F45 %30.07 in10.0 miSE (130°)3.5 mphClear
Hourly data recorded from KPGA, located miles away from Wahweap, Arizona







STORIES FROM OUR PARTNERS